{"data":{"norad_id":61638,"epoch":"2026-09-21T00:19:15.518784Z","epoch_age_seconds":147658,"freshness":"FRESH","line1":"1 61638U 24191T   26264.01337406 -.00000112  00000+0  54408-5 0  9995","line2":"2 61638  43.0000 135.3124 0001260 269.8916  90.1791 15.27578904107364","mean_motion":15.27578904,"eccentricity":0.000126,"inclination_deg":43,"raan_deg":135.3124,"arg_perigee_deg":269.8916,"mean_anomaly_deg":90.1791,"bstar":5.4408e-6,"rev_number":10736,"period_min":94.266816347707,"perigee_km":482.18786799829,"apogee_km":483.91688772151,"semimajor_km":6861.1893778599,"source":"CELESTRAK","updated_at":"2026-09-22T09:00:49.398315Z"}}